Regional Weather Roundup
Issued by NWS

Home | Current Version | Previous Version | Graphics & Text | Print | Product List | Glossary On
Versions: 1 2 3 4 5 6 7 8 9 10 11 12 13 14 15 16 17 18 19 20 21 22 23 24 25 26 27 28 29 30 31 32 33 34 35 36 37 38 39 40 41 42 43 44 45 46 47 48 49 50
000
ASUS43 KLMK 301402
RWRKY
KENTUCKY REGIONAL WEATHER ROUNDUP
NATIONAL WEATHER SERVICE LOUISVILLE KY
1000 AM EDT SAT AUG 30 2014

NOTE "FAIR" INDICATES FEW OR NO CLOUDS BELOW 12,000 FEET
WITH NO SIGNIFICANT WEATHER AND/OR OBSTRUCTIONS TO VISIBILITY.

KYZ001>023-026-027-061>063-070>075-301500-
WESTERN AND SOUTH CENTRAL KENTUCKY

CITY           SKY/WX    TMP DP  RH WIND       PRES   REMARKS
PADUCAH        CLOUDY    80  69  69 SW6       30.00R
HENDERSON      PTSUNNY   75  70  83 SE5       30.01S
OWENSBORO      MOSUNNY   77  68  73 VRB3      30.03R
HOPKINSVILLE   PTSUNNY   78  68  72 SW10      30.05R
BOWLING GREEN  PTSUNNY   79  66  64 S9        30.06S
GLASGOW        MOSUNNY   76  65  67 S5        30.08S
$$

KYZ024-025-028>034-038-045-046-053-301500-
NORTH CENTRAL KENTUCKY

CITY           SKY/WX    TMP DP  RH WIND       PRES   REMARKS
LOUISVILLE/SDF PTSUNNY   79  66  64 SE7       30.04S
LOUISVILLE/LOU PTSUNNY   78  65  63 SE7       30.05S
FORT KNOX      PTSUNNY   76  68  74 S8        30.05R
$$

KYZ035>037-039>044-047>052-055>060-089>105-301500-
NORTHEAST KENTUCKY

CITY           SKY/WX    TMP DP  RH WIND       PRES   REMARKS
LEXINGTON      MOSUNNY   80  66  62 S12       30.09S
COVINGTON      PTSUNNY   78  65  63 S9        30.06S
FRANKFORT      MOSUNNY   78  66  66 S9        30.07R
$$

KYZ054-064>069-076>088-106>120-301500-
SOUTHEAST KENTUCKY

CITY           SKY/WX    TMP DP  RH WIND       PRES   REMARKS
JACKSON        SUNNY     77  67  71 VRB3      30.15S
LONDON         MOSUNNY   79  67  66 S6        30.15S
SOMERSET       MOSUNNY   77  63  61 S6        30.14R
MIDDLESBORO    CLOUDY    79  68  69 S5        30.17S
MONTICELLO     PTSUNNY   78  69  73 SE7       30.14R
$$



USA.gov is the U.S. government's official web portal to all federal, state and local government web resources and services.